GW0920 Weather Reports


time (UTC)temp
F
wind
direction
speed
knots
gust
knots
rain 1hr
in
rain 24hr
in
rain mn
in
humidity
%
barometer
mb
20260507222533 0 0.0 0.0 0.00 0.16 0.00 1015.4
20260507221632 0 0.0 0.0 0.00 0.16 0.00 1015.2
20260507220553 0 0.0 0.0 0.00 0.16 0.00 1015.2
20260507215532 0 0.0 0.0 0.00 0.16 0.16 1015.3
20260507214533 0 0.0 0.0 0.00 0.16 0.16 1015.2
20260507213538 0 0.0 0.0 0.00 0.16 0.16 1015.0
20260507212632 0 0.0 0.0 0.00 0.16 0.16 1014.9
20260507211532 0 0.0 0.0 0.00 0.16 0.16 1015.1
20260507210659 0 0.0 0.0 0.00 0.16 0.16 1014.9
20260507205539 0 0.0 0.0 0.00 0.16 0.16 1014.8
20260507204533 0 0.0 0.0 0.00 0.16 0.16 1014.7
20260507203633 0 0.0 0.0 0.00 0.16 0.16 1014.7
20260507202638 0 0.0 0.0 0.00 0.16 0.16 1014.8
20260507201538 0 0.0 0.0 0.00 0.16 0.16 1014.7
20260507200539 0 0.0 0.0 0.00 0.16 0.16 1014.4
20260507195633 0 0.0 0.0 0.00 0.16 0.16 1014.4
20260507194553 0 0.0 0.0 0.00 0.16 0.16 1014.1
20260507193533 0 0.0 0.0 0.00 0.16 0.16 1013.9
20260507192534 0 0.0 0.0 0.00 0.16 0.16 1013.9
20260507191538 0 0.0 0.0 0.00 0.16 0.16 1013.5
20260507190635 0 0.0 0.0 0.00 0.16 0.16 1013.7
20260507185633 0 0.0 0.0 0.00 0.16 0.16 1013.5
20260507184638 0 0.0 0.0 0.00 0.16 0.16 1013.3
20260507183632 0 0.0 0.0 0.00 0.16 0.16 1013.2
20260507182532 0 0.0 0.0 0.00 0.16 0.16 1013.2
20260507181532 0 0.0 0.0 0.00 0.16 0.16 1013.2
20260507180632 0 6 0.0 0.9 0.00 0.16 0.16 1012.9
20260507175632 0 6 0.0 0.9 0.00 0.16 0.16 1012.8
20260507174603 0 237 0.0 1.7 0.00 0.16 0.16 1012.8
20260507173532 0 166 0.9 1.7 0.00 0.16 0.16 1012.7
20260507172621 0 39 0.9 1.7 0.00 0.16 0.16 1012.8
20260507171539 0 164 0.9 1.7 0.00 0.16 0.16 1012.7
20260507170619 0 121 1.7 1.7 0.00 0.16 0.16 1012.7
20260507165538 0 179 1.7 4.3 0.00 0.16 0.16 1012.5
20260507164530 0 295 0.9 2.6 0.00 0.16 0.16 1012.6
20260507163524 0 161 1.7 4.3 0.00 0.16 0.16 1012.6
20260507162546 0 212 1.7 2.6 0.00 0.16 0.16 1012.5
20260507161535 0 189 1.7 4.3 0.00 0.16 0.16 1012.5
20260507160622 0 312 2.6 4.3 0.00 0.16 0.16 1012.7
20260507155532 0 292 1.7 4.3 0.00 0.16 0.16 1012.6
20260507154602 0 312 1.7 4.3 0.00 0.16 0.16 1012.7
20260507153523 0 188 2.6 5.2 0.00 0.16 0.16 1012.6
20260507152546 0 316 1.7 4.3 0.00 0.16 0.16 1012.6
20260507151555 0 147 2.6 2.6 0.00 0.16 0.16 1012.6
20260507150639 0 133 1.7 2.6 0.00 0.16 0.16 1012.7
20260507145529 0 130 0.9 1.7 0.00 0.16 0.16 1012.6
20260507144546 0 156 1.7 5.2 0.00 0.16 0.16 1012.7
20260507143555 0 62 0.9 2.6 0.00 0.16 0.16 1012.7
20260507142603 0 281 1.7 1.7 0.00 0.16 0.16 1012.8
20260507141612 0 268 1.7 6.1 0.00 0.16 0.16 1012.9
20260507140639 0 292 0.9 1.7 0.00 0.16 0.16 1012.9
20260507135533 0 105 0.9 2.6 0.00 0.16 0.16 1012.9
20260507134547 0 200 0.9 2.6 0.00 0.16 0.16 1013.1
20260507133617 0 329 2.6 5.2 0.00 0.16 0.16 1013.1
20260507132609 0 252 1.7 5.2 0.00 0.16 0.16 1013.3
20260507131532 0 193 1.7 5.2 0.00 0.16 0.16 1013.3
20260507130602 0 211 1.7 2.6 0.00 0.16 0.16 1013.4
20260507125627 0 256 2.6 7.0 0.00 0.16 0.16 1013.4
20260507124532 0 251 2.6 6.1 0.00 0.16 0.16 1013.5
20260507123611 0 163 1.7 4.3 0.00 0.16 0.16 1013.7
20260507122531 0 277 1.7 5.2 0.00 0.16 0.16 1013.6
20260507121605 0 246 2.6 5.2 0.00 0.16 0.16 1013.8
20260507120556 0 159 2.6 7.0 0.00 0.16 0.16 1013.7
20260507115617 0 118 1.7 2.6 0.00 0.16 0.16 1013.8
20260507114619 0 198 1.7 2.6 0.00 0.16 0.16 1013.8
20260507113523 0 287 2.6 4.3 0.00 0.16 0.16 1014.0
20260507112532 0 251 1.7 4.3 0.00 0.16 0.16 1014.1
20260507111555 0 23 1.7 2.6 0.00 0.16 0.16 1014.1
20260507110531 0 152 2.6 6.1 0.00 0.16 0.16 1014.3
20260507105539 0 308 1.7 2.6 0.00 0.16 0.16 1014.4
20260507104547 0 245 1.7 2.6 0.00 0.16 0.16 1014.5
20260507103631 0 127 1.7 5.2 0.00 0.16 0.16 1014.4
20260507102625 0 209 1.7 4.3 0.00 0.16 0.16 1014.7
20260507101648 0 318 0.9 1.7 0.00 0.16 0.16 1014.6
20260507100532 0 301 2.6 5.2 0.00 0.16 0.16 1014.6
20260507095539 0 93 2.6 4.3 0.00 0.16 0.16 1014.8
20260507094531 0 145 5.2 7.0 0.00 0.16 0.16 1014.6
20260507093532 0 187 0.9 2.6 0.00 0.16 0.16 1014.7
20260507092603 0 213 0.9 4.3 0.00 0.16 0.16 1014.5
20260507091523 0 166 3.5 5.2 0.00 0.16 0.16 1014.7
20260507090531 64 1 0.9 4.3 0.00 0.16 0.16 99 1014.6
20260507085635 65 321 1.7 5.2 0.00 0.16 0.16 99 1014.6
20260507084609 63 113 1.7 4.3 0.00 0.16 0.16 99 1014.5
20260507083532 62 142 3.5 5.2 0.00 0.16 0.16 99 1014.5
20260507082619 62 105 0.9 2.6 0.00 0.16 0.16 99 1014.6
20260507081523 62 37 0.0 1.7 0.00 0.16 0.16 99 1014.6
20260507080548 61 33 0.9 1.7 0.00 0.16 0.16 99 1014.4
20260507075621 60 350 0.9 2.6 0.00 0.16 0.16 99 1014.4
20260507074619 59 0.0 0.0 0.00 0.16 0.16 99 1014.3
20260507073532 55 8 0.9 2.6 0.00 0.16 0.16 99 1014.3
20260507072619 55 0.0 0.0 0.00 0.16 0.16 99 1014.3
20260507071523 55 0.0 0.0 0.00 0.16 0.16 99 1014.2
20260507070532 55 0.0 0.0 0.00 0.16 0.16 99 1014.2
20260507065611 54 325 0.0 1.7 0.00 0.16 0.16 99 1014.2
20260507064620 54 0.0 0.0 0.00 0.18 0.16 99 1013.9
20260507063612 54 0.0 0.0 0.00 0.19 0.16 99 1013.8
20260507062552 54 0.0 0.0 0.00 0.19 0.16 99 1013.8
20260507061540 54 0.0 0.0 0.00 0.19 0.16 99 1013.7
20260507060551 53 0.0 0.0 0.00 0.19 0.16 99 1013.6
20260507055524 53 0.0 0.0 0.00 0.19 0.16 99 1013.5
20260507054635 53 0.0 0.0 0.00 0.19 0.16 99 1013.3
20260507053539 52 0.0 0.0 0.00 0.19 0.16 99 1013.3
20260507052551 52 320 0.9 1.7 0.03 0.19 0.16 99 1013.1
20260507051555 52 298 0.0 0.9 0.04 0.19 0.16 99 1013.1
20260507050652 53 346 0.9 1.7 0.05 0.19 0.16 99 1012.9
20260507045532 52 286 0.0 1.7 0.08 0.19 0.16 99 1012.9
20260507044547 52 318 0.0 0.9 0.10 0.19 0.16 99 1012.7
20260507043602 52 42 0.0 0.9 0.11 0.19 0.16 99 1012.6
20260507042619 52 324 0.9 1.7 0.10 0.17 0.13 99 1012.6
20260507041524 52 310 0.9 1.7 0.10 0.17 0.12 99 1012.7
20260507040620 52 333 1.7 2.6 0.11 0.18 0.11 99 1012.4
20260507035532 53 326 0.9 1.7 0.08 0.16 0.08 99 1012.6
20260507034603 53 319 1.7 4.3 0.06 0.14 0.06 99 1012.6
20260507033532 53 350 0.9 1.7 0.05 0.13 0.05 99 1012.5
20260507032538 53 340 1.7 2.6 0.03 0.11 0.03 99 1012.4
20260507031601 54 10 1.7 4.3 0.02 0.10 0.02 99 1012.5
20260507030532 54 351 1.7 4.3 0.00 0.08 0.00 99 1012.5
20260507025611 54 349 2.6 5.2 0.00 0.08 0.00 99 1012.5
20260507024619 54 15 3.5 5.2 0.00 0.08 0.00 99 1012.4
20260507023532 54 15 2.6 5.2 0.00 0.08 0.00 99 1012.4
20260507022632 54 332 0.9 2.6 0.00 0.08 0.00 99 1012.4
20260507021532 54 354 0.9 1.7 0.00 0.08 0.00 99 1012.5
20260507020639 54 329 1.7 2.6 0.00 0.08 0.00 99 1012.5
20260507015556 54 318 1.7 2.6 0.00 0.08 0.00 99 1012.6
20260507014531 54 330 0.9 2.6 0.00 0.08 0.00 99 1012.5
20260507013523 54 331 0.9 0.9 0.00 0.08 0.00 99 1012.2
20260507012547 54 323 0.9 1.7 0.00 0.08 0.00 99 1012.3
20260507011611 55 0.0 0.0 0.00 0.08 0.00 99 1012.3
20260507010604 55 68 0.0 0.9 0.00 0.08 0.00 99 1012.4
20260507005523 55 190 0.0 0.9 0.00 0.08 0.00 99 1012.4
20260507004547 56 281 0.0 0.9 0.00 0.08 0.00 99 1012.3
20260507003523 56 355 0.9 1.7 0.00 0.08 0.00 99 1012.2
20260507002531 56 16 0.9 1.7 0.00 0.08 0.00 99 1012.1
20260507001611 56 333 0.9 1.7 0.00 0.08 0.00 99 1012.2
20260507000531 56 332 0.9 1.7 0.00 0.08 0.00 99 1012.2
20260506235615 56 343 0.0 1.7 0.00 0.08 0.00 99 1012.1
20260506234609 56 355 0.9 1.7 0.00 0.08 0.00 99 1012.2
20260506233556 56 13 0.9 1.7 0.00 0.08 0.00 99 1012.1
20260506232604 56 351 0.9 4.3 0.00 0.08 0.00 99 1012.0
20260506231555 55 12 0.0 0.9 0.00 0.08 0.00 99 1011.9
20260506230603 55 3 0.0 0.9 0.00 0.08 0.00 99 1011.9
20260506225631 55 0.0 0.0 0.00 0.08 0.00 99 1011.8
20260506224603 55 1 0.0 0.9 0.00 0.08 0.00 99 1011.9
20260506223523 55 108 0.9 1.7 0.00 0.08 0.00 99 1011.8
20260506222604 56 355 1.7 2.6 0.00 0.08 0.00 99 1011.7